Location: Agadir Irigdalene
(31.2522°N, 8.7797°W)
Time: 05:29:23
(UTC+00:00)

Cosmos 2369 Rocket - Pass Details

Date: 01 December 2020
Orbit: 829 x 852 km, 71.0° (Epoch: 25 January)

Event Time Altitude Azimuth Distance (km) Brightness Sun altitude
Rises 19:37:36 0° 330° (NNW) 3,407 5.6 -26.3°
Reaches altitude 10° 19:40:10 10° 324° (NW) 2,465 4.9 -26.8°
Maximum altitude 19:45:24 40° 256° (WSW) 1,216 3.4 -27.9°
Drops below altitude 10° 19:50:36 10° 188° (S) 2,438 4.8 -29.0°
Sets 19:53:09 0° 181° (S) 3,365 5.4 -29.6°
